Simultaneous Nadir Overpasses (SNOs) Predictions

Prediction of SNOs between GOES-16 and METOP-B Satellite Orbit:

Table of predicted SNOs for the next 14.0 days since TLE Epoch: 6/12/2021
Index Date Time (GOES-16) GOES-16 Lat,Lon METOP-B Lat,Lon Distance(km) Time Diff (sec)
1 06/13/2021 14:28:22 -0.04, -75.25 -0.13, -74.84 46.75 80
2 06/15/2021 02:50:03 0.04, -75.25 -0.89, -79.44 477.32 80
3 06/16/2021 02:26:45 0.05, -75.26 0.25, -74.45 92.34 80
4 06/17/2021 14:48:17 -0.04, -75.28 0.77, -79.01 424.60 80
5 06/18/2021 14:24:58 -0.05, -75.29 -0.31, -74.01 145.47 80
6 06/20/2021 02:46:39 0.04, -75.30 -0.70, -78.61 377.39 80
7 06/21/2021 02:23:21 0.05, -75.31 0.44, -73.62 192.90 80
8 06/22/2021 14:44:53 -0.04, -75.34 0.58, -78.18 323.36 80
9 06/23/2021 14:21:34 -0.05, -75.36 -0.56, -73.20 246.94 80
10 06/25/2021 02:43:15 0.05, -75.37 -0.50, -77.78 275.52 80
